"Datum/tijd (MEZT)";"SWAN sign golfverwachting";"SWAN swell verwachting";"golfhoogte";"deininghoogte"
2024-04-14 19:00;143;20;149;20
2024-04-14 19:10;143;20;151;19
2024-04-14 19:20;143;20;143;21
2024-04-14 19:30;142;20;139;22
2024-04-14 19:40;142;20;139;21
2024-04-14 19:50;142;20;153;19
2024-04-14 20:00;142;20;155;20
2024-04-14 20:10;142;20;141;19
2024-04-14 20:20;141;20;134;18
2024-04-14 20:30;141;20;137;19
2024-04-14 20:40;141;19;144;22
2024-04-14 20:50;140;19;148;21
2024-04-14 21:00;140;19;138;19
2024-04-14 21:10;139;19;139;21
2024-04-14 21:20;139;19;143;19
2024-04-14 21:30;138;18;139;22
2024-04-14 21:40;137;18;136;22
2024-04-14 21:50;137;18;132;19
2024-04-14 22:00;136;18;129;20
2024-04-14 22:10;135;18;133;21
2024-04-14 22:20;135;18;138;19
2024-04-14 22:30;134;18;139;19
2024-04-14 22:40;133;18;129;20
2024-04-14 22:50;133;18;122;18
2024-04-14 23:00;132;18;128;19
2024-04-14 23:10;131;18;136;20
2024-04-14 23:20;131;18;135;19
2024-04-14 23:30;130;18;125;20
2024-04-14 23:40;129;18;115;17
2024-04-14 23:50;129;18;115;17
2024-04-15 00:00;128;18;115;18
2024-04-15 00:10;127;18;107;17
2024-04-15 00:20;127;18;107;17
2024-04-15 00:30;126;18;111;19
2024-04-15 00:40;125;18;113;19
2024-04-15 00:50;125;18;108;17
2024-04-15 01:00;124;18;101;17
2024-04-15 01:10;124;18;95;15
2024-04-15 01:20;123;18;93;15
2024-04-15 01:30;122;18;98;18
2024-04-15 01:40;122;19;98;18
2024-04-15 01:50;122;19;96;15
2024-04-15 02:00;120;19;101;15
2024-04-15 02:10;119;19;100;16
2024-04-15 02:20;119;19;91;16
2024-04-15 02:30;118;19;88;17
2024-04-15 02:40;117;19;90;20
2024-04-15 02:50;117;19;92;20
2024-04-15 03:00;116;19;89;21
2024-04-15 03:10;115;19;90;20
2024-04-15 03:20;114;19;95;18
2024-04-15 03:30;114;20;92;16
2024-04-15 03:40;113;20;92;18
2024-04-15 03:50;112;20;92;20
2024-04-15 04:00;111;20;91;20
2024-04-15 04:10;110;20;91;21
2024-04-15 04:20;110;20;91;21
2024-04-15 04:30;109;20;92;18
2024-04-15 04:40;108;20;89;18
2024-04-15 04:50;108;20;86;21
2024-04-15 05:00;107;20;89;20
2024-04-15 05:10;107;20;93;19
2024-04-15 05:20;106;20;93;21
2024-04-15 05:30;106;20;93;20
2024-04-15 05:40;106;21;95;23
2024-04-15 05:50;105;21;95;23
2024-04-15 06:00;105;21;96;22
2024-04-15 06:10;106;21;97;22
2024-04-15 06:20;107;21;96;22
2024-04-15 06:30;108;21;96;24
2024-04-15 06:40;108;21;97;26
2024-04-15 06:50;109;21;99;27
2024-04-15 07:00;110;21;100;27
2024-04-15 07:10;112;21;99;24
2024-04-15 07:20;115;21;102;21
2024-04-15 07:30;117;21;103;21
2024-04-15 07:40;119;21;109;22
2024-04-15 07:50;122;21;108;23
2024-04-15 08:00;124;21;112;25
2024-04-15 08:10;127;21;120;25
2024-04-15 08:20;130;21;121;23
2024-04-15 08:30;133;21;128;21
2024-04-15 08:40;136;21;134;21
2024-04-15 08:50;139;21;140;24
2024-04-15 09:00;142;21;141;26
2024-04-15 09:10;146;21;143;26
2024-04-15 09:20;151;21;147;23
2024-04-15 09:30;155;21;150;24
2024-04-15 09:40;159;21;160;24
2024-04-15 09:50;164;21;162;21
2024-04-15 10:00;168;21;161;23
2024-04-15 10:10;172;21;160;24
2024-04-15 10:20;176;21;171;25
2024-04-15 10:30;180;21;175;25
2024-04-15 10:40;185;21;169;26
2024-04-15 10:50;189;21;192;28
2024-04-15 11:00;188;21;203;28
2024-04-15 11:10;191;21;195;26
2024-04-15 11:20;195;21;193;26
2024-04-15 11:30;198;22;193;25
2024-04-15 11:40;201;22;193;22
2024-04-15 11:50;205;22;194;22
2024-04-15 12:00;208;22;194;20
2024-04-15 12:10;211;22;200;28
2024-04-15 12:20;214;23;222;31
2024-04-15 12:30;216;24;207;26
2024-04-15 12:40;219;24;188;27
2024-04-15 12:50;222;24;204;25
2024-04-15 13:00;225;25;218;23
2024-04-15 13:10;230;26;228;26
2024-04-15 13:20;235;26;239;27
2024-04-15 13:30;240;27;245;30
2024-04-15 13:40;246;28;250;30
2024-04-15 13:50;251;28;263;28
2024-04-15 14:00;251;29;264;34
2024-04-15 14:10;249;30;269;36
2024-04-15 14:20;247;30;279;38
2024-04-15 14:30;244;30;281;37
2024-04-15 14:40;242;31;276;33
2024-04-15 14:50;240;32;264;36
2024-04-15 15:00;238;32;254;40
2024-04-15 15:10;237;32;246;39
2024-04-15 15:20;236;32;247;39
2024-04-15 15:30;236;32;223;37
2024-04-15 15:40;235;33;221;31
2024-04-15 15:50;234;33;246;35
2024-04-15 16:00;233;33;247;36
2024-04-15 16:10;235;33;240;38
2024-04-15 16:20;238;33;240;40
2024-04-15 16:30;240;33;232;41
2024-04-15 16:40;242;33;228;36
2024-04-15 16:50;245;33;249;36
2024-04-15 17:00;244;33;241;39
2024-04-15 17:10;245;33;223;35
2024-04-15 17:20;246;33;247;34
2024-04-15 17:30;246;33;248;35
2024-04-15 17:40;247;33;241;35
2024-04-15 17:50;248;33;257;37
2024-04-15 18:00;249;33;258;41
2024-04-15 18:10;249;33;259;42
2024-04-15 18:20;248;33;262;37
2024-04-15 18:30;248;33;264;34
2024-04-15 18:40;248;33;258;35
2024-04-15 18:50;247;33;275;39
2024-04-15 19:00;247;33;282;38
2024-04-15 19:10;248;33;268;35
2024-04-15 19:20;248;33;270;34
2024-04-15 19:30;248;33;284;33
2024-04-15 19:40;249;33;311;39
2024-04-15 19:50;250;33;297;40
2024-04-15 20:00;246;33;265;38
2024-04-15 20:10;246;33;279;38
2024-04-15 20:20;247;33;282;41
2024-04-15 20:30;248;34;275;44
2024-04-15 20:40;248;34;269;39
2024-04-15 20:50;248;34;276;36
2024-04-15 21:00;249;34;284;33
2024-04-15 21:10;248;34;264;33
2024-04-15 21:20;248;35;277;34
2024-04-15 21:30;248;35;290;33
2024-04-15 21:40;247;35;293;35
2024-04-15 21:50;246;36;284;38
2024-04-15 22:00;246;36;271;38
2024-04-15 22:10;248;36;285;34
2024-04-15 22:20;251;37;273;34
2024-04-15 22:30;254;37;277;33
2024-04-15 22:40;256;37;291;35
2024-04-15 22:50;258;38;289;37
2024-04-15 23:00;258;38;304;43
2024-04-15 23:10;259;38;312;41
2024-04-15 23:20;259;38;285;37
2024-04-15 23:30;260;38;274;39
2024-04-15 23:40;261;39;278;40
2024-04-15 23:50;261;39;275;39
2024-04-16 00:00;262;39;261;33
2024-04-16 00:10;262;39;286;34
2024-04-16 00:20;261;39;325;43
2024-04-16 00:30;260;40;313;46
2024-04-16 00:40;260;40;273;41
2024-04-16 00:50;260;40;268;38
2024-04-16 01:00;259;40;275;39
2024-04-16 01:10;258;40;259;37
2024-04-16 01:20;256;40;246;35
2024-04-16 01:30;254;40;240;37
2024-04-16 01:40;253;40;244;40
2024-04-16 01:50;252;40;270;46
2024-04-16 02:00;251;40;276;48
2024-04-16 02:10;251;40;305;55
2024-04-16 02:20;251;40;354;59
2024-04-16 02:30;250;40;335;55
2024-04-16 02:40;250;40;310;51
2024-04-16 02:50;250;40;319;50
2024-04-16 03:00;250;40;329;53
2024-04-16 03:10;252;40;332;52
2024-04-16 03:20;253;40;315;55
2024-04-16 03:30;254;40;314;59
2024-04-16 03:40;256;40;317;60
2024-04-16 03:50;258;40;308;55
2024-04-16 04:00;259;40;330;55
2024-04-16 04:10;258;40;377;63
2024-04-16 04:20;256;40;377;55
2024-04-16 04:30;254;40;334;54
2024-04-16 04:40;253;40;341;61
2024-04-16 04:50;252;40;347;62
2024-04-16 05:00;252;42;327;56
2024-04-16 05:10;252;42;333;51
2024-04-16 05:20;252;42;322;51
2024-04-16 05:30;252;42;328;53
2024-04-16 05:40;251;43;318;61
2024-04-16 05:50;251;43;304;65
2024-04-16 06:00;251;43;306;51
2024-04-16 06:10;256;44;290;51
2024-04-16 06:20;261;44;324;59
2024-04-16 06:30;266;44;339;59
2024-04-16 06:40;272;45;325;58
2024-04-16 06:50;277;46;337;61
2024-04-16 07:00;282;46;331;60
2024-04-16 07:10;284;46;312;57
2024-04-16 07:20;286;47;331;64
2024-04-16 07:30;288;48;375;67
2024-04-16 07:40;290;48;365;69
2024-04-16 07:50;292;48;344;64
2024-04-16 08:00;296;49;353;57
2024-04-16 08:10;295;49;342;59
2024-04-16 08:20;295;49;352;56
2024-04-16 08:30;294;50;380;63
2024-04-16 08:40;293;50;374;64
2024-04-16 08:50;293;50;325;56
2024-04-16 09:00;292;50;294;56
2024-04-16 09:10;289;50;289;53
2024-04-16 09:20;286;50;272;49
2024-04-16 09:30;284;50;275;43
2024-04-16 09:40;281;49;289;47
2024-04-16 09:50;278;49;282;45
2024-04-16 10:00;275;49;263;42
2024-04-16 10:10;274;48;262;44
2024-04-16 10:20;272;48;280;49
2024-04-16 10:30;270;48;301;55
2024-04-16 10:40;269;47;295;49
2024-04-16 10:50;268;46;278;41
2024-04-16 11:00;262;46;283;40
2024-04-16 11:10;260;46;270;36
2024-04-16 11:20;258;45;267;37
2024-04-16 11:30;256;44;262;38
2024-04-16 11:40;255;44;237;36
2024-04-16 11:50;253;44;224;35
2024-04-16 12:00;251;43;235;41
2024-04-16 12:10;249;42;226;40
2024-04-16 12:20;247;42;238;39
2024-04-16 12:30;244;42;265;42
2024-04-16 12:40;242;41;265;37
2024-04-16 12:50;240;40;267;39
2024-04-16 13:00;238;40;262;43
2024-04-16 13:10;236;40;251;45
2024-04-16 13:20;235;39;257;39
2024-04-16 13:30;233;39;259;30
2024-04-16 13:40;231;39;247;31
2024-04-16 13:50;230;38;237;32
2024-04-16 14:00;227;38;239;33
2024-04-16 14:10;225;38;233;36
2024-04-16 14:20;223;38;230;35
2024-04-16 14:30;222;38;230;33
2024-04-16 14:40;220;37;232;31
2024-04-16 14:50;218;37;234;28
2024-04-16 15:00;216;37;223;31
2024-04-16 15:10;214;37;235;34
2024-04-16 15:20;212;37;248;33
2024-04-16 15:30;210;36;234;35
2024-04-16 15:40;209;36;227;37
2024-04-16 15:50;207;36;217;33
2024-04-16 16:00;205;36;211;33
2024-04-16 16:10;204;36;217;35
2024-04-16 16:20;203;36;212;33
2024-04-16 16:30;202;36;209;30
2024-04-16 16:40;201;35;211;29
2024-04-16 16:50;200;35;201;29
2024-04-16 17:00;199;34;204;28
2024-04-16 17:10;198;34;202;28
2024-04-16 17:20;197;34;204;33
2024-04-16 17:30;196;34;207;35
2024-04-16 17:40;196;33;190;30
2024-04-16 17:50;195;33;187;31
2024-04-16 18:00;194;33;201;30
2024-04-16 18:10;192;33;203;32
2024-04-16 18:20;191;33;197;33
2024-04-16 18:30;190;33;201;28
2024-04-16 18:40;188;33;198;32
2024-04-16 18:50;186;33;196;33
2024-04-16 19:00;185;33;197;31
2024-04-16 19:10;184;33;200;31
2024-04-16 19:20;183;33;196;29
2024-04-16 19:30;182;32;189;25
2024-04-16 19:40;180;32;195;27
2024-04-16 19:50;179;32;191;34
2024-04-16 20:00;178;32;184;33
2024-04-16 20:10;177;32;184;30
2024-04-16 20:20;176;32;194;31
2024-04-16 20:30;175;32;188;29
2024-04-16 20:40;174;32;191;29
2024-04-16 20:50;173;32;208;33
2024-04-16 21:00;172;32;203;35
2024-04-16 21:10;171;32;191;33
2024-04-16 21:20;171;32;194;28
2024-04-16 21:30;170;32;198;31
2024-04-16 21:40;169;32;199;32
2024-04-16 21:50;169;32;192;31
2024-04-16 22:00;168;32;189;30
2024-04-16 22:10;168;32;185;26
2024-04-16 22:20;167;32;188;27
2024-04-16 22:30;167;32;178;27
2024-04-16 22:40;167;31;165;26
2024-04-16 22:50;166;31;178;26
2024-04-16 23:00;166;31;181;26
2024-04-16 23:10;166;31;173;25
2024-04-16 23:20;165;31;168;27
2024-04-16 23:30;165;30;174;28
2024-04-16 23:40;165;30;179;28
2024-04-16 23:50;164;30;179;28
2024-04-17 00:00;164;30;177;29
2024-04-17 00:10;164;30;190;29
2024-04-17 00:20;163;30;182;29
2024-04-17 00:30;163;30;169;26
2024-04-17 00:40;163;29;167;23
2024-04-17 00:50;162;29;164;26
2024-04-17 01:00;162;29;159;30
2024-04-17 01:10;163;29;170;29
2024-04-17 01:20;163;29;179;27
2024-04-17 01:30;164;28;167;26
2024-04-17 01:40;165;28;167;28
2024-04-17 01:50;165;28;176;30
2024-04-17 02:00;165;28;178;27
2024-04-17 02:10;165;28;177;25
2024-04-17 02:20;165;27;179;28
2024-04-17 02:30;165;27;171;27
2024-04-17 02:40;165;27;169;24
2024-04-17 02:50;165;26;187;26
2024-04-17 03:00;165;26;185;26
2024-04-17 03:10;164;26;176;26
2024-04-17 03:20;164;26;184;26
2024-04-17 03:30;164;26;176;26
2024-04-17 03:40;163;25;179;24
2024-04-17 03:50;162;25;180;22
2024-04-17 04:00;162;25;181;25
2024-04-17 04:10;161;25;174;24
2024-04-17 04:20;161;25;173;23
2024-04-17 04:30;160;24;183;24
2024-04-17 04:40;159;24;179;24
2024-04-17 04:50;159;24;177;25
2024-04-17 05:00;158;24;182;21
2024-04-17 05:10;158;24;178;21
2024-04-17 05:20;157;24;174;22
2024-04-17 05:30;156;24;170;23
2024-04-17 05:40;156;23;173;24
2024-04-17 05:50;156;23;177;23
2024-04-17 06:00;155;23;166;24
2024-04-17 06:10;154;23;168;24
2024-04-17 06:20;154;23;174;25
2024-04-17 06:30;153;22;165;22
2024-04-17 06:40;152;22;152;18
2024-04-17 06:50;152;22;154;21
2024-04-17 07:00;151;22;157;23
2024-04-17 07:10;150;22;161;23
2024-04-17 07:20;150;22;162;21
2024-04-17 07:30;149;22;163;23
2024-04-17 07:40;148;21;155;25
2024-04-17 07:50;148;21;149;22
2024-04-17 08:00;149;25;158;20
2024-04-17 08:10;149;25;165;23
2024-04-17 08:20;149;25;156;24
2024-04-17 08:30;148;24;154;23
2024-04-17 08:40;148;24;156;22
2024-04-17 08:50;148;24;157;22
2024-04-17 09:00;148;24;151;24
2024-04-17 09:10;148;24;151;22
2024-04-17 09:20;147;24;155;21
2024-04-17 09:30;146;24;155;21
2024-04-17 09:40;146;24;159;21
2024-04-17 09:50;146;24;155;22
2024-04-17 10:00;145;24;145;23
2024-04-17 10:10;144;24;144;25
2024-04-17 10:20;144;23;142;24
2024-04-17 10:30;144;23;141;23
2024-04-17 10:40;143;23;148;22
2024-04-17 10:50;142;22;159;20
2024-04-17 11:00;142;22;156;23
2024-04-17 11:10;141;22;153;24
2024-04-17 11:20;141;21;154;20
2024-04-17 11:30;140;21;149;22
2024-04-17 11:40;139;21;147;25
2024-04-17 11:50;139;20;156;25
2024-04-17 12:00;138;20;162;24
2024-04-17 12:10;138;20;150;21
2024-04-17 12:20;137;20;150;20
2024-04-17 12:30;137;20;152;20
2024-04-17 12:40;137;19;147;22
2024-04-17 12:50;136;19;144;23
2024-04-17 13:00;136;19;141;23
2024-04-17 13:10;136;19;144;24
2024-04-17 13:20;136;19;142;24
2024-04-17 13:30;136;18;143;25
2024-04-17 13:40;135;18;145;23
2024-04-17 13:50;135;18;142;22
2024-04-17 14:00;134;18;140;24
2024-04-17 14:10;134;18;140;23
2024-04-17 14:20;134;18;141;22
2024-04-17 14:30;134;18;139;24
2024-04-17 14:40;133;17;140;23
2024-04-17 14:50;133;17;134;20
2024-04-17 15:00;133;17;133;20
2024-04-17 15:10;133;17;132;21
2024-04-17 15:20;132;17;137;23
2024-04-17 15:30;132;17;140;26
2024-04-17 15:40;132;17;131;26
2024-04-17 15:50;131;17;128;24
2024-04-17 16:00;131;17;132;23
2024-04-17 16:10;131;17;132;23
2024-04-17 16:20;130;17;134;24
2024-04-17 16:30;130;18;133;24
2024-04-17 16:40;130;18;123;24
2024-04-17 16:50;129;18;123;25
2024-04-17 17:00;129;18;125;25
2024-04-17 17:10;128;18;125;22
2024-04-17 17:20;128;19;125;22
2024-04-17 17:30;128;19;130;25
2024-04-17 17:40;127;19;125;27
2024-04-17 17:50;126;20;121;26
2024-04-17 18:00;126;20;121;24
2024-04-17 18:10;126;20;123;25
2024-04-17 18:20;125;20;129;25
2024-04-17 18:30;125;20;124;24
2024-04-17 18:40;125;21;124;25
2024-04-17 18:50;124;21;125;25
2024-04-17 19:00;124;21;127;25
2024-04-17 19:10;124;21;126;27
2024-04-17 19:20;124;22;123;30
2024-04-17 19:30;124;22;120;31
2024-04-17 19:40;123;22;119;31
2024-04-17 19:50;123;23;124;30
2024-04-17 20:00;124;25;127;30
2024-04-17 20:10;124;25;127;31
2024-04-17 20:20;124;26;121;34
2024-04-17 20:30;124;26;121;32
2024-04-17 20:40;124;26;116;30
2024-04-17 20:50;124;27;121;37
2024-04-17 21:00;124;27;124;38
2024-04-17 21:10;124;27;117;38
2024-04-17 21:20;124;28;118;35
2024-04-17 21:30;124;28;120;32
2024-04-17 21:40;124;28;120;30
2024-04-17 21:50;124;29;118;36
2024-04-17 22:00;124;29;116;41
2024-04-17 22:10;124;29;114;40
2024-04-17 22:20;124;29;127;47
2024-04-17 22:30;124;30;133;48
2024-04-17 22:40;124;30;126;41
2024-04-17 22:50;124;30;129;41
2024-04-17 23:00;124;30;137;45
2024-04-17 23:10;124;30;135;48
2024-04-17 23:20;124;30;135;47
2024-04-17 23:30;124;30;141;43
2024-04-17 23:40;124;30;136;40
2024-04-17 23:50;124;30;137;40
2024-04-18 00:00;124;30;134;36
2024-04-18 00:10;124;30;131;36
2024-04-18 00:20;124;30;141;41
2024-04-18 00:30;124;30;147;46
2024-04-18 00:40;125;30;139;43
2024-04-18 00:50;125;30;137;42
2024-04-18 01:00;125;30;150;46
2024-04-18 01:10;125;30;149;42
2024-04-18 01:20;125;30;145;40
2024-04-18 01:30;125;30;146;40
2024-04-18 01:40;125;30;138;41
2024-04-18 01:50;125;30;130;47
2024-04-18 02:00;126;30;131;47
2024-04-18 02:10;126;30;130;40
2024-04-18 02:20;126;30;133;41
2024-04-18 02:30;126;30;137;37
2024-04-18 02:40;125;29;133;36
2024-04-18 02:50;125;29;133;37
2024-04-18 03:00;125;29;133;38
2024-04-18 03:10;125;29;128;39
2024-04-18 03:20;125;29;128;37
2024-04-18 03:30;124;28;127;34
2024-04-18 03:40;124;28;121;34
2024-04-18 03:50;124;28;116;33
2024-04-18 04:00;124;28;124;26
2024-04-18 04:10;124;28;126;26
2024-04-18 04:20;123;28;126;32
2024-04-18 04:30;123;28;125;33
2024-04-18 04:40;123;27;119;28
2024-04-18 04:50;122;27;116;25
2024-04-18 05:00;123;27;120;26
2024-04-18 05:10;123;27;118;30
2024-04-18 05:20;122;26;116;31
2024-04-18 05:30;122;26;118;30
2024-04-18 05:40;122;26;117;29
2024-04-18 05:50;121;25;120;28
2024-04-18 06:00;121;25;120;35
2024-04-18 06:10;120;25;115;34
2024-04-18 06:20;120;25;115;29
2024-04-18 06:30;120;24;116;26
2024-04-18 06:40;119;24;118;25
2024-04-18 06:50;118;24;118;31
2024-04-18 07:00;118;24;112;30
2024-04-18 07:10;118;24;116;30
2024-04-18 07:20;118;23;116;32
2024-04-18 07:30;118;23;112;26
2024-04-18 07:40;117;23;119;27
2024-04-18 07:50;117;22;123;28
2024-04-18 08:00;117;23;118;24
2024-04-18 08:10;117;23;112;24
2024-04-18 08:20;117;23;103;25
2024-04-18 08:30;117;22;97;23
2024-04-18 08:40;117;22;101;24
2024-04-18 08:50;117;22;104;27
2024-04-18 09:00;117;22;113;26
2024-04-18 09:10;117;22;118;27
2024-04-18 09:20;117;22;109;28
2024-04-18 09:30;116;22;109;26
2024-04-18 09:40;116;21;113;22
2024-04-18 09:50;116;21;114;20
2024-04-18 10:00;116;21;111;24
2024-04-18 10:10;116;21;109;24
2024-04-18 10:20;115;21;107;23
2024-04-18 10:30;115;20;114;25
2024-04-18 10:40;115;20;115;24
2024-04-18 10:50;114;20;105;20
2024-04-18 11:00;114;20;102;21
2024-04-18 11:10;114;20;112;22
2024-04-18 11:20;114;20;115;24
2024-04-18 11:30;114;20;112;23
2024-04-18 11:40;114;19;112;17
2024-04-18 11:50;114;19;120;23
2024-04-18 12:00;114;19;122;28
2024-04-18 12:10;114;19;123;26
2024-04-18 12:20;114;18;130;24
2024-04-18 12:30;114;18;126;22
2024-04-18 12:40;113;18;118;24
2024-04-18 12:50;113;17;127;23
2024-04-18 13:00;113;17;127;22
2024-04-18 13:10;113;17;119;26
2024-04-18 13:20;113;17;127;24
2024-04-18 13:30;114;16;126;22
2024-04-18 13:40;114;16;116;22
2024-04-18 13:50;114;16;118;23
2024-04-18 14:00;114;16;124;22
2024-04-18 14:10;114;16;124;23
2024-04-18 14:20;114;16;122;22
2024-04-18 14:30;114;16;120;20
2024-04-18 14:40;115;16;121;22
2024-04-18 14:50;115;16;118;22
2024-04-18 15:00;115;16;112;24
2024-04-18 15:10;115;16;118;23
2024-04-18 15:20;115;16;119;20
2024-04-18 15:30;116;16;117;21
2024-04-18 15:40;116;15;126;21
2024-04-18 15:50;116;15;125;20
2024-04-18 16:00;116;15;114;20
2024-04-18 16:10;116;15;115;17
2024-04-18 16:20;116;15;120;16
2024-04-18 16:30;116;15;116;19
2024-04-18 16:40;117;15;118;20
2024-04-18 16:50;117;15;117;19
2024-04-18 17:00;117;15;114;17
2024-04-18 17:10;117;15;114;16
2024-04-18 17:20;118;15;114;17
2024-04-18 17:30;118;15;115;17
2024-04-18 17:40;118;15;112;17
2024-04-18 17:50;119;15;114;18
2024-04-18 18:00;119;15;116;20
2024-04-18 18:10;120;15;112;21
2024-04-18 18:20;121;15;111;21
2024-04-18 18:30;122;16;108;18
2024-04-18 18:40;122;16;110;16
2024-04-18 18:50;123;16;109;21
2024-04-18 19:00;124;16;105;24
2024-04-18 19:10;125;16;113;22
2024-04-18 19:20;126;16;114;20
2024-04-18 19:30;126;16;112;21
2024-04-18 19:40;127;16;112;21
2024-04-18 19:50;128;16;118;21
2024-04-18 20:00;128;16;123;20
2024-04-18 20:10;129;16;119;22
2024-04-18 20:20;130;16;111;21
2024-04-18 20:30;130;16;113;18
2024-04-18 20:40;131;16;122;19
2024-04-18 20:50;132;16;125;23
2024-04-18 21:00;133;16;128;22
2024-04-18 21:10;134;16;130;21
2024-04-18 21:20;136;16;136;20
2024-04-18 21:30;138;16;137;17
2024-04-18 21:40;139;16;129;18
2024-04-18 21:50;140;16;142;20
2024-04-18 22:00;142;16;147;21
2024-04-18 22:10;148;16;147;22
2024-04-18 22:20;154;16;152;21
2024-04-18 22:30;160;16;148;19
2024-04-18 22:40;165;15;146;20
2024-04-18 22:50;171;15;155;23
2024-04-18 23:00;172;15;162;20
2024-04-18 23:10;176;15;182;20
2024-04-18 23:20;180;15;189;21
2024-04-18 23:30;184;14;178;20
2024-04-18 23:40;188;14;183;19
2024-04-18 23:50;192;14;195;18
2024-04-19 00:00;196;14;190;18
2024-04-19 00:10;197;14;196;19
2024-04-19 00:20;198;14;209;20
2024-04-19 00:30;198;14;218;21
2024-04-19 00:40;199;13;225;23
2024-04-19 00:50;200;13;234;22
2024-04-19 01:00;201;13;240;20
2024-04-19 01:10;203;13;238;22
2024-04-19 01:20;204;13;259;23
2024-04-19 01:30;206;12;264;23
2024-04-19 01:40;208;12;241;22
2024-04-19 01:50;209;12;235;22
2024-04-19 02:00;208;12;250;21
2024-04-19 02:10;208;12;257;22
2024-04-19 02:20;208;12;267;24
2024-04-19 02:30;208;12;268;25
2024-04-19 02:40;209;11;251;22
2024-04-19 02:50;209;11;237;18
2024-04-19 03:00;209;11;245;20
2024-04-19 03:10;208;11;253;21
2024-04-19 03:20;207;11;257;22
2024-04-19 03:30;206;10;260;21
2024-04-19 03:40;205;10;254;20
2024-04-19 03:50;204;10;255;20
2024-04-19 04:00;203;10;260;20
2024-04-19 04:10;202;10;257;20
2024-04-19 04:20;200;10;259;20
2024-04-19 04:30;199;10;251;20
2024-04-19 04:40;198;9;239;18
2024-04-19 04:50;196;9;242;17
2024-04-19 05:00;194;9;243;18
2024-04-19 05:10;192;9;262;19
2024-04-19 05:20;191;9;270;19
2024-04-19 05:30;190;8;260;19
2024-04-19 05:40;188;8;246;17
2024-04-19 05:50;186;8;243;16
2024-04-19 06:00;185;8;235;17
2024-04-19 06:10;184;8;219;18
2024-04-19 06:20;183;8;211;16
2024-04-19 06:30;182;8;226;16
2024-04-19 06:40;180;7;248;19
2024-04-19 06:50;179;7;239;18
2024-04-19 07:00;178;7;217;16
2024-04-19 07:10;177;7;218;18
2024-04-19 07:20;176;7;224;18
2024-04-19 07:30;176;7;219;16
2024-04-19 07:40;175;7;203;16
2024-04-19 07:50;174;7;211;15
2024-04-19 08:00;172;7;213;14
2024-04-19 08:10;172;7;210;17
2024-04-19 08:20;172;7;222;17
2024-04-19 08:30;172;7;221;15
2024-04-19 08:40;171;7;220;15
2024-04-19 08:50;171;7;225;15
2024-04-19 09:00;171;7;197;13
2024-04-19 09:10;172;7;184;12
2024-04-19 09:20;172;7;196;12
2024-04-19 09:30;172;8;195;13
2024-04-19 09:40;173;8;185;14
2024-04-19 09:50;174;8;191;13
2024-04-19 10:00;174;8;217;14
2024-04-19 10:10;174;8;214;15
2024-04-19 10:20;175;9;197;15
2024-04-19 10:30;176;9;210;13
2024-04-19 10:40;176;9;214;14
2024-04-19 10:50;176;10;214;15
2024-04-19 11:00;177;10;213;13
2024-04-19 11:10;181;10;198;13
2024-04-19 11:20;185;11;197;12
2024-04-19 11:30;188;12;199;12
2024-04-19 11:40;192;12;200;14
2024-04-19 11:50;196;12;209;14
2024-04-19 12:00;200;13;204;13
2024-04-19 12:10;202;14;203;13
2024-04-19 12:20;204;14;218;13
2024-04-19 12:30;206;14;225;13
2024-04-19 12:40;207;15;217;14
2024-04-19 12:50;209;16;219;13
2024-04-19 13:00;211;16;239;13
2024-04-19 13:10;216;16;231;13
2024-04-19 13:20;220;17;237;13
2024-04-19 13:30;225;18;249;15
2024-04-19 13:40;230;18;230;13
2024-04-19 13:50;234;18;227;14
2024-04-19 14:00;239;19;236;15
2024-04-19 14:10;244;20;252;16
2024-04-19 14:20;249;21;257;18
2024-04-19 14:30;254;22;258;18
2024-04-19 14:40;258;23;263;15
2024-04-19 14:50;263;24;255;16
2024-04-19 15:00;268;25;273;19
2024-04-19 15:10;272;27;299;21
2024-04-19 15:20;275;28;300;24
2024-04-19 15:30;279;30;290;25
2024-04-19 15:40;283;32;298;26
2024-04-19 15:50;286;33;337;33
2024-04-19 16:00;290;35;316;32
2024-04-19 16:10;295;37;289;28
2024-04-19 16:20;300;39;317;30
2024-04-19 16:30;304;42;350;38
2024-04-19 16:40;309;44;377;47
2024-04-19 16:50;314;46;374;49
2024-04-19 17:00;317;48;343;52
2024-04-19 17:10;319;50;366;55
2024-04-19 17:20;321;52;397;63
2024-04-19 17:30;324;54;397;70
2024-04-19 17:40;326;55;386;74
2024-04-19 17:50;328;57;406;87
2024-04-19 18:00;330;59;396;92
2024-04-19 18:10;331;61;376;94
2024-04-19 18:20;332;62;415;102
2024-04-19 18:30;332;64;443;115
2024-04-19 18:40;333;66;447;124
2024-04-19 18:50;334;67;428;122
2024-04-19 19:00;335;69;407;124
2024-04-19 19:10;335;70;410;125
2024-04-19 19:20;336;72;400;131
2024-04-19 19:30;336;74;381;125
2024-04-19 19:40;336;75;380;105
2024-04-19 19:50;337;76;382;105
2024-04-19 20:00;338;78;386;124
2024-04-19 20:10;339;79;392;147
2024-04-19 20:20;340;81;394;145
2024-04-19 20:30;341;82;418;146
2024-04-19 20:40;342;83;427;152
2024-04-19 20:50;343;85;375;131
2024-04-19 21:00;344;86;377;157
2024-04-19 21:10;343;87;412;180
2024-04-19 21:20;341;87;397;162
2024-04-19 21:30;340;88;375;151
2024-04-19 21:40;339;89;372;143
2024-04-19 21:50;337;89;349;136
2024-04-19 22:00;336;90;337;135
2024-04-19 22:10;334;90;378;142
2024-04-19 22:20;332;91;396;146
2024-04-19 22:30;330;91;395;159
2024-04-19 22:40;327;91;364;158
2024-04-19 22:50;325;92;349;173
2024-04-19 23:00;318;91;360;161
2024-04-19 23:10;316;91;348;138
2024-04-19 23:20;313;91;366;170
2024-04-19 23:30;311;91;367;170